Estación de C. Llollinco

Ultimos registro cada 15 minutos 47
Estación Fecha / Hora Temperatura Humedad Lluvia Velocidad Dirección Radiación Presion
47 C. Llollinco 04-05-2026 11:30 11 98,4 0 0 43 84 0
46 C. Llollinco 04-05-2026 11:15 10,7 98,5 0 0,1 45 77 0
45 C. Llollinco 04-05-2026 11:00 10,6 98,4 0 0 8 49 0
44 C. Llollinco 04-05-2026 10:45 10,4 98,5 0 0 83 55 0
43 C. Llollinco 04-05-2026 10:30 10,2 98,7 0 0 154 54 0
42 C. Llollinco 04-05-2026 10:15 10,1 98,5 0 0 150 37 0
41 C. Llollinco 04-05-2026 10:00 10,1 98,7 0 0,4 19 37 0
40 C. Llollinco 04-05-2026 09:45 10 98,5 0 0 24 31 0
39 C. Llollinco 04-05-2026 09:30 9,9 98,5 0 0 0 32 0
38 C. Llollinco 04-05-2026 09:15 9,8 98,6 0 0 0 20 0
37 C. Llollinco 04-05-2026 09:00 9,8 98,6 0 0 0 10 0
36 C. Llollinco 04-05-2026 08:45 9,7 98,5 0 0 0 10 0
35 C. Llollinco 04-05-2026 08:30 9,7 98,5 0 0 0 10 0
34 C. Llollinco 04-05-2026 08:15 9,6 98,5 0 0 0 9 0
33 C. Llollinco 04-05-2026 08:00 9,6 98,5 0 0 0 4 0
32 C. Llollinco 04-05-2026 07:45 9,6 98,5 0 0 0 1 0
31 C. Llollinco 04-05-2026 07:30 9,5 98,6 0 0 0 0 0
30 C. Llollinco 04-05-2026 07:15 9,6 98,5 0 0 0 0 0
29 C. Llollinco 04-05-2026 07:00 9,5 98,4 0,1 0 0 0 0
28 C. Llollinco 04-05-2026 06:45 9,5 98,5 0,1 0 214 0 0
27 C. Llollinco 04-05-2026 06:30 9,5 98,5 0,1 0 0 0 0
26 C. Llollinco 04-05-2026 06:15 9,5 98,4 0,9 0 0 0 0
25 C. Llollinco 04-05-2026 06:00 9,5 98,5 0,1 0 206 0 0
24 C. Llollinco 04-05-2026 05:45 9,5 98,4 0 0 0 0 0
23 C. Llollinco 04-05-2026 05:30 9,5 98,4 0,1 0 0 0 0
22 C. Llollinco 04-05-2026 05:15 9,5 98,4 0 0 0 0 0
21 C. Llollinco 04-05-2026 05:00 9,4 98,4 0 0 0 0 0
20 C. Llollinco 04-05-2026 04:45 9,4 98,4 0 0 0 0 0
19 C. Llollinco 04-05-2026 04:30 9,3 98,4 0 0 0 0 0
18 C. Llollinco 04-05-2026 04:15 9,3 98,4 0 0 0 0 0
17 C. Llollinco 04-05-2026 04:00 9,3 98,4 0 0 0 0 0
16 C. Llollinco 04-05-2026 03:45 9,3 98,4 0 0 190 0 0
15 C. Llollinco 04-05-2026 03:30 9,2 98,4 0 0 172 0 0
14 C. Llollinco 04-05-2026 03:15 9,2 98,4 0 0,1 185 0 0
13 C. Llollinco 04-05-2026 03:00 9,1 98,3 0 0 0 0 0
12 C. Llollinco 04-05-2026 02:45 9,2 98,4 0 0 57 0 0
11 C. Llollinco 04-05-2026 02:30 9,2 98,4 0 0 0 0 0
10 C. Llollinco 04-05-2026 02:15 9,2 98,3 0 0 0 0 0
9 C. Llollinco 04-05-2026 02:00 9,2 98,3 0 0 0 0 0
8 C. Llollinco 04-05-2026 01:45 9,2 98,3 0 0 0 0 0
7 C. Llollinco 04-05-2026 01:30 9,3 98,4 0 0 217 0 0
6 C. Llollinco 04-05-2026 01:15 9,3 98,3 0 0 199 0 0
5 C. Llollinco 04-05-2026 01:00 9,4 98,3 0 0 0 0 0
4 C. Llollinco 04-05-2026 00:45 9,4 98,4 0 0,2 227 0 0
3 C. Llollinco 04-05-2026 00:30 9,4 98,3 0 0,1 210 0 0
2 C. Llollinco 04-05-2026 00:15 9,5 98,3 0 0 0 0 0
1 C. Llollinco 04-05-2026 00:00 9,5 98,2 0 0 0 0 0